Clayton Lake, ME

1:58 PM EDT on July 28, 2017 (GMT -0400)
Clayton Lake

Weather History for K40B - May, 2013

Change the Weather History Date:

Tuesday, May 14, 2013

  Actual Average Record
Temperature  
Mean Temperature 37 °F -  
Max Temperature 48 °F 58 °F 78 °F (1998)
Min Temperature 27 °F 33 °F 27 °F (2001)
Degree Days  
Heating Degree Days 28    
Moisture  
Dew Point 29 °F    
Average Humidity 73    
Maximum Humidity 100    
Minimum Humidity 46    
Precipitation  
Precipitation 0.01 in - - ()
Sea Level Pressure  
Sea Level Pressure 30.01 in    
Wind  
Wind Speed 2 mph (North)    
Max Wind Speed 7 mph    
Max Gust Speed 15 mph    
Averages and records for this station are not official NWS values.
T = Trace of Precipitation, MM = Missing Value Source: NWS Daily Summary

Daily Weather History Graph

Daily Weather History Graph

Search for Another Location

Airport or City:

Trip Planner

Search our weather history database for the weather conditions in past years. The results will help you decide how hot, cold, wet, or windy it might be!

Date:

Astronomy

May. 14, 2013 Rise Set
Actual Time 5:05 AM EDT 8:04 PM EDT
Civil Twilight 4:29 AM EDT 8:40 PM EDT
Nautical Twilight 3:43 AM EDT 9:26 PM EDT
Astronomical Twilight 2:49 AM EDT 10:21 PM EDT
Moon 8:42 AM EDT (5/14) 11:47 PM EDT (5/14)
Length of Visible Light 16h 10m
Length of Day
14h 59m
Waxing Crescent, 19% of the Moon is Illuminated
May 14
Waxing Crescent
May 18
First Quarter
May 25
Full
May 31
Last Quarter
Jun 8
New

Hourly Weather History & Observations

Time (EDT) Temp. Windchill Dew Point Humidity Pressure Visibility Wind Dir Wind Speed Gust Speed Precip Events Conditions
12:25 AM 30.7 °F - 30.4 °F 99% 29.99 in - Calm Calm - N/A   Unknown
1:25 AM 30.4 °F - 30.6 °F 100% 29.99 in - Calm Calm - 0.00 in   Unknown
2:25 AM 30.6 °F - 30.7 °F 100% 29.98 in - Calm Calm - N/A   Unknown
3:25 AM 28.6 °F - 28.9 °F 100% 30.00 in - Calm Calm - N/A   Unknown
4:25 AM 27.7 °F - 28.2 °F 100% 30.01 in - Calm Calm - N/A   Unknown
5:25 AM 28.2 °F - 28.9 °F 100% 30.02 in - Calm Calm - N/A   Unknown
6:25 AM - - - N/A% 30.04 in - Calm Calm - 0.01 in   Unknown
7:25 AM 36.1 °F - 34.0 °F 92% 30.05 in - Calm Calm - N/A   Unknown
8:25 AM 40.1 °F 36.9 °F 29.8 °F 67% 30.04 in - Variable 4.6 mph - N/A   Unknown
9:25 AM 43.0 °F 38.8 °F 29.1 °F 58% 30.04 in - Variable 6.9 mph 13.8 mph N/A   Unknown
10:25 AM 43.3 °F 41.7 °F 27.5 °F 54% 30.03 in - Variable 3.5 mph - N/A   Unknown
11:25 AM 43.9 °F 42.3 °F 25.2 °F 48% 30.01 in - Variable 3.5 mph - N/A   Unknown
12:25 PM 45.0 °F 41.2 °F 25.7 °F 47% 30.02 in - Variable 6.9 mph 12.7 mph N/A   Unknown
1:25 PM 47.8 °F - 28.0 °F 46% 30.01 in - Variable 5.8 mph 15.0 mph N/A   Unknown
2:25 PM 46.9 °F - 29.5 °F 51% 30.02 in - Variable 3.5 mph 13.8 mph N/A   Unknown
3:25 PM 46.0 °F 44.8 °F 27.1 °F 48% 30.02 in - Variable 3.5 mph 12.7 mph N/A   Unknown
4:25 PM 45.1 °F 42.8 °F 26.8 °F 49% 30.00 in - Variable 4.6 mph - N/A   Unknown
5:25 PM 45.1 °F 43.7 °F 28.4 °F 52% 29.99 in - Variable 3.5 mph 11.5 mph N/A   Unknown
6:25 PM 44.2 °F 42.7 °F 28.6 °F 54% 29.99 in - Variable 3.5 mph - N/A   Unknown
7:25 PM 41.9 °F - 28.8 °F 60% 29.99 in - Calm Calm - N/A   Unknown
8:25 PM 36.5 °F - 30.4 °F 78% 29.98 in - Calm Calm - 0.00 in   Unknown
9:25 PM 32.5 °F - 29.5 °F 88% 30.01 in - Calm Calm - N/A   Unknown
10:25 PM 30.7 °F 27.3 °F 27.9 °F 89% 29.99 in - Variable 3.5 mph - 0.00 in   Unknown
11:25 PM 28.8 °F - 27.9 °F 96% 29.99 in - Calm Calm - N/A   Unknown